Погода в Глубоком

Россия / Псковская область     56°36′37″N   29°01′16″E
темп.,
°C
ветер,
м/с
пор.,
м/с
влажн.,
%
обл.,
%
осадки,
мм/ч
давл.,
гПа
погр.,
м
3 августа, вт
вт300:00+13зюз5129633 0.0 1003563
03:00+13зюз4119691 0.0 1005586
06:00+12юз3109790 0.0 1006435
09:00+16юз487717 0.0 1006724
12:00+16зюз688099 1.3 10081005
15:00+21зюз684899 1.3 10082032
18:00+18з376289 0.1 10091082
21:00+15зюз258182 0.1 1011110
4 августа, ср
ср400:00+12з22895 0.0 101231
03:00+12зсз118393 0.0 101328
06:00+13зсз1278100 0.0 101449
09:00+16сз23665 0.0 1016480
12:00+20зсз344399 0.0 10162098
15:00+22зсз243553 0.0 10162342
18:00+21сз233681 0.0 10152104
21:00+16в3760100 0.0 1016206
5 августа, чт
чт500:00+14в2766100 0.0 1017146
03:00+14в2670100 0.0 1016152
06:00+12в2492100 1.1 101686
09:00+13всв2497100 4.6 1016157
12:00+13всв3896100 4.6 1015340
15:00+13св41096100 6.9 1015561
18:00+13всв41096100 0.6 1014504
21:00+13всв31095100 0.7 1013498
6 августа, пт
пт600:00+11всв3109830 0.0 1012350
03:00+12св389796 0.0 1011426
06:00+13св41098100 0.0 1009434
09:00+14св41196100 0.0 1008545
12:00+15св51292100 0.0 1007623
15:00+14св61497100 5.0 1005770
18:00+15всв71497100 13.6 1003788
21:00+16всв61298100 14.6 1003517
7 августа, сб
сб700:00+16в51197100 1.7 1002667
03:00+15ююв3896100 1.9 1003527
06:00+14ююв3997100 0.2 1004452
09:00+16ю499489 0.2 1005682
12:00+17ююз4785100 0.2 1006743
15:00+19ююз4572100 0.3 10071069
18:00+18ю2680100 0.0 1008435
21:00+15ю26955 0.0 1009113